| time (UTC) | temp F | wind direction | speed MPH | gust MPH | rain 1hr in | rain 24hr in | rain mn in | humidity % | barometer mb |
| 20260903050224 | 53 | 87 | 0.0 | 0.0 | 0.00 | 0.00 | 0.00 | 54 | 930.0 |
| 20260903045719 | 53 | 81 | 0.0 | 0.0 | 0.00 | 0.00 | 0.00 | 53 | 930.2 |
| 20260903045215 | 53 | 51 | 0.0 | 0.0 | 0.00 | 0.00 | 0.00 | 52 | 930.1 |
| 20260903044711 | 53 | 82 | 0.0 | 2.0 | 0.00 | 0.00 | 0.00 | 53 | 930.2 |
| 20260903044206 | 54 | 54 | 0.0 | 0.0 | 0.00 | 0.00 | 0.00 | 49 | 930.1 |
| 20260903043703 | 55 | 58 | 0.0 | 0.0 | 0.00 | 0.00 | 0.00 | 49 | 930.3 |
| 20260903043202 | 55 | 80 | 1.0 | 3.0 | 0.00 | 0.00 | 0.00 | 48 | 930.1 |
| 20260903042701 | 55 | 79 | 3.0 | 8.0 | 0.00 | 0.00 | 0.00 | 48 | 930.2 |
| 20260903042156 | 55 | 60 | 0.0 | 0.0 | 0.00 | 0.00 | 0.00 | 49 | 930.5 |
| 20260903041653 | 54 | 74 | 1.0 | 3.0 | 0.00 | 0.00 | 0.00 | 52 | 930.4 |
| 20260903041148 | 56 | 71 | 0.0 | 0.0 | 0.00 | 0.00 | 0.00 | 49 | 930.3 |
| 20260903040648 | 56 | 58 | 0.0 | 0.0 | 0.00 | 0.00 | 0.00 | 50 | 930.2 |
| 20260903040144 | 56 | 107 | 0.0 | 0.0 | 0.00 | 0.00 | 0.00 | 52 | 930.2 |
| 20260903035640 | 56 | 98 | 0.0 | 0.0 | 0.00 | 0.00 | 0.00 | 53 | 930.1 |
| 20260903035135 | 56 | 49 | 0.0 | 0.0 | 0.00 | 0.00 | 0.00 | 51 | 929.7 |
| 20260903034630 | 57 | 42 | 0.0 | 0.0 | 0.00 | 0.00 | 0.00 | 49 | 929.5 |
| 20260903034125 | 59 | 61 | 0.0 | 0.0 | 0.00 | 0.00 | 0.00 | 46 | 929.5 |
| 20260903033620 | 57 | 73 | 0.0 | 0.0 | 0.00 | 0.00 | 0.00 | 48 | 929.4 |
| 20260903033115 | 57 | 100 | 0.0 | 0.0 | 0.00 | 0.00 | 0.00 | 47 | 929.9 |
| 20260903032610 | 58 | 33 | 0.0 | 2.0 | 0.00 | 0.00 | 0.00 | 46 | 929.9 |
| 20260903032105 | 58 | 44 | 0.0 | 0.0 | 0.00 | 0.00 | 0.00 | 44 | 930.0 |
| 20260903031600 | 58 | 51 | 0.0 | 0.0 | 0.00 | 0.00 | 0.00 | 46 | 930.0 |
| 20260903031055 | 58 | 22 | 0.0 | 0.0 | 0.00 | 0.00 | 0.00 | 48 | 930.0 |
| 20260903030550 | 61 | 41 | 0.0 | 0.0 | 0.00 | 0.00 | 0.00 | 45 | 929.9 |
| 20260903030047 | 61 | 65 | 0.0 | 0.0 | 0.00 | 0.00 | 0.00 | 38 | 929.7 |
| 20260903025541 | 60 | 54 | 0.0 | 0.0 | 0.00 | 0.00 | 0.00 | 40 | 929.7 |
| 20260903025037 | 60 | 11 | 0.0 | 0.0 | 0.00 | 0.00 | 0.00 | 42 | 929.9 |
| 20260903024536 | 60 | 21 | 0.0 | 0.0 | 0.00 | 0.00 | 0.00 | 45 | 929.7 |
| 20260903024031 | 61 | 21 | 0.0 | 0.0 | 0.00 | 0.00 | 0.00 | 45 | 930.1 |
| 20260903023527 | 62 | 359 | 0.0 | 0.0 | 0.00 | 0.00 | 0.00 | 43 | 930.0 |
| 20260903023022 | 62 | 36 | 0.0 | 0.0 | 0.00 | 0.00 | 0.00 | 39 | 930.0 |
| 20260903022521 | 62 | 35 | 0.0 | 0.0 | 0.00 | 0.00 | 0.00 | 42 | 930.1 |
| 20260903022020 | 63 | 35 | 0.0 | 0.0 | 0.00 | 0.00 | 0.00 | 41 | 930.0 |
| 20260903021515 | 65 | 35 | 0.0 | 0.0 | 0.00 | 0.00 | 0.00 | 35 | 930.1 |
| 20260903021010 | 65 | 35 | 0.0 | 0.0 | 0.00 | 0.00 | 0.00 | 34 | 930.2 |
| 20260903020506 | 67 | 36 | 0.0 | 0.0 | 0.00 | 0.00 | 0.00 | 31 | 930.1 |
| 20260903020000 | 67 | 16 | 0.0 | 0.0 | 0.00 | 0.00 | 0.00 | 30 | 929.9 |
| 20260903015456 | 68 | 10 | 0.0 | 0.0 | 0.00 | 0.00 | 0.00 | 29 | 929.6 |
| 20260903014955 | 68 | 298 | 0.0 | 0.0 | 0.00 | 0.00 | 0.00 | 29 | 929.5 |
| 20260903014449 | 69 | 291 | 0.0 | 0.0 | 0.00 | 0.00 | 0.00 | 27 | 929.4 |
| 20260903013944 | 70 | 257 | 0.0 | 0.0 | 0.00 | 0.00 | 0.00 | 27 | 929.6 |
| 20260903013444 | 70 | 272 | 1.0 | 8.0 | 0.00 | 0.00 | 0.00 | 26 | 929.7 |
| 20260903012943 | 70 | 315 | 4.0 | 9.0 | 0.00 | 0.00 | 0.00 | 27 | 929.6 |
| 20260903012438 | 70 | 278 | 2.0 | 6.0 | 0.00 | 0.00 | 0.00 | 25 | 930.0 |
| 20260903011937 | 71 | 201 | 6.0 | 11.0 | 0.00 | 0.00 | 0.00 | 25 | 929.9 |
| 20260903011432 | 71 | 330 | 3.0 | 6.0 | 0.00 | 0.00 | 0.00 | 26 | 930.1 |
| 20260903010932 | 71 | 255 | 7.0 | 11.0 | 0.00 | 0.00 | 0.00 | 24 | 930.0 |
| 20260903010427 | 72 | 279 | 6.0 | 9.0 | 0.00 | 0.00 | 0.00 | 24 | 930.0 |
| 20260903005925 | 73 | 241 | 7.0 | 13.0 | 0.00 | 0.00 | 0.00 | 24 | 930.0 |
| 20260903005415 | 73 | 262 | 9.0 | 14.0 | 0.00 | 0.00 | 0.00 | 24 | 930.0 |
| 20260903004912 | 74 | 190 | 6.0 | 14.0 | 0.00 | 0.00 | 0.00 | 24 | 930.0 |
| 20260903004406 | 74 | 260 | 6.0 | 10.0 | 0.00 | 0.00 | 0.00 | 25 | 930.3 |
| 20260903003902 | 74 | 258 | 10.0 | 13.0 | 0.00 | 0.00 | 0.00 | 24 | 930.4 |
| 20260903003402 | 74 | 273 | 3.0 | 11.0 | 0.00 | 0.00 | 0.00 | 25 | 930.3 |
| 20260903002856 | 75 | 221 | 7.0 | 14.0 | 0.00 | 0.00 | 0.00 | 25 | 930.3 |
| 20260903002351 | 75 | 261 | 0.0 | 6.0 | 0.00 | 0.00 | 0.00 | 25 | 930.4 |
| 20260903001845 | 75 | 165 | 11.0 | 16.0 | 0.00 | 0.00 | 0.00 | 22 | 930.4 |
| 20260903001341 | 75 | 308 | 1.0 | 10.0 | 0.00 | 0.00 | 0.00 | 25 | 930.2 |
| 20260903000840 | 76 | 342 | 8.0 | 17.0 | 0.00 | 0.00 | 0.00 | 24 | 930.4 |
| 20260903000336 | 76 | 223 | 5.0 | 16.0 | 0.00 | 0.00 | 0.00 | 23 | 930.3 |
| 20260902235834 | 75 | 252 | 7.0 | 11.0 | 0.00 | 0.00 | 0.00 | 23 | 930.3 |
| 20260902235329 | 75 | 194 | 6.0 | 9.0 | 0.00 | 0.00 | 0.00 | 24 | 930.5 |
| 20260902234829 | 76 | 252 | 11.0 | 16.0 | 0.00 | 0.00 | 0.00 | 23 | 930.7 |
| 20260902234328 | 76 | 227 | 8.0 | 15.0 | 0.00 | 0.00 | 0.00 | 23 | 930.5 |
| 20260902233827 | 77 | 285 | 7.0 | 10.0 | 0.00 | 0.00 | 0.00 | 23 | 930.4 |
| 20260902233328 | 76 | 215 | 6.0 | 14.0 | 0.00 | 0.00 | 0.00 | 23 | 930.4 |
| 20260902232826 | 76 | 237 | 12.0 | 20.0 | 0.00 | 0.00 | 0.00 | 22 | 930.4 |
| 20260902232321 | 76 | 254 | 8.0 | 17.0 | 0.00 | 0.00 | 0.00 | 23 | 930.7 |
| 20260902231820 | 77 | 320 | 6.0 | 15.0 | 0.00 | 0.00 | 0.00 | 24 | 930.3 |
| 20260902231316 | 77 | 243 | 2.0 | 17.0 | 0.00 | 0.00 | 0.00 | 23 | 930.7 |
| 20260902230811 | 76 | 233 | 5.0 | 17.0 | 0.00 | 0.00 | 0.00 | 23 | 930.4 |
| 20260902230309 | 76 | 246 | 5.0 | 14.0 | 0.00 | 0.00 | 0.00 | 23 | 930.4 |
| 20260902225804 | 76 | 218 | 8.0 | 13.0 | 0.00 | 0.00 | 0.00 | 23 | 930.5 |
| 20260902225259 | 77 | 227 | 11.0 | 20.0 | 0.00 | 0.00 | 0.00 | 21 | 930.9 |
| 20260902224758 | 77 | 264 | 11.0 | 21.0 | 0.00 | 0.00 | 0.00 | 22 | 930.7 |
| 20260902224253 | 76 | 244 | 7.0 | 16.0 | 0.00 | 0.00 | 0.00 | 24 | 930.2 |
| 20260902223750 | 75 | 259 | 8.0 | 21.0 | 0.00 | 0.00 | 0.00 | 23 | 930.3 |
| 20260902223249 | 75 | 232 | 11.0 | 17.0 | 0.00 | 0.00 | 0.00 | 23 | 930.7 |
| 20260902222748 | 75 | 199 | 5.0 | 13.0 | 0.00 | 0.00 | 0.00 | 25 | 930.5 |
| 20260902222248 | 75 | 316 | 3.0 | 15.0 | 0.00 | 0.00 | 0.00 | 25 | 930.8 |
| 20260902221742 | 76 | 249 | 6.0 | 11.0 | 0.00 | 0.00 | 0.00 | 25 | 930.9 |
| 20260902221242 | 75 | 233 | 9.0 | 14.0 | 0.00 | 0.00 | 0.00 | 25 | 930.5 |
| 20260902220738 | 75 | 184 | 10.0 | 14.0 | 0.00 | 0.00 | 0.00 | 25 | 930.7 |
| 20260902220237 | 75 | 241 | 9.0 | 11.0 | 0.00 | 0.00 | 0.00 | 25 | 930.8 |
| 20260902215733 | 77 | 159 | 6.0 | 14.0 | 0.00 | 0.00 | 0.00 | 24 | 930.8 |
| 20260902215228 | 77 | 166 | 9.0 | 14.0 | 0.00 | 0.00 | 0.00 | 25 | 930.5 |
| 20260902214724 | 76 | 211 | 11.0 | 18.0 | 0.00 | 0.00 | 0.00 | 25 | 930.7 |
| 20260902214222 | 76 | 224 | 11.0 | 14.0 | 0.00 | 0.00 | 0.00 | 25 | 930.5 |
| 20260902213718 | 77 | 256 | 4.0 | 16.0 | 0.00 | 0.00 | 0.00 | 25 | 930.7 |
| 20260902213213 | 76 | 167 | 6.0 | 14.0 | 0.00 | 0.00 | 0.00 | 25 | 930.7 |
| 20260902212713 | 77 | 236 | 13.0 | 16.0 | 0.00 | 0.00 | 0.00 | 24 | 930.7 |
| 20260902212209 | 77 | 267 | 7.0 | 15.0 | 0.00 | 0.00 | 0.00 | 25 | 930.8 |
| 20260902211705 | 77 | 273 | 8.0 | 15.0 | 0.00 | 0.00 | 0.00 | 26 | 930.5 |
| 20260902211200 | 76 | 201 | 13.0 | 21.0 | 0.00 | 0.00 | 0.00 | 27 | 930.8 |
| 20260902210659 | 77 | 275 | 7.0 | 14.0 | 0.00 | 0.00 | 0.00 | 28 | 930.7 |
| 20260902210155 | 77 | 245 | 7.0 | 11.0 | 0.00 | 0.00 | 0.00 | 26 | 930.9 |
| 20260902205653 | 75 | 234 | 7.0 | 17.0 | 0.00 | 0.00 | 0.00 | 28 | 930.9 |
| 20260902205148 | 75 | 198 | 10.0 | 16.0 | 0.00 | 0.00 | 0.00 | 28 | 930.8 |
| 20260902204643 | 76 | 178 | 6.0 | 18.0 | 0.00 | 0.00 | 0.00 | 28 | 931.0 |
| 20260902204138 | 75 | 148 | 7.0 | 18.0 | 0.00 | 0.00 | 0.00 | 28 | 930.9 |
| 20260902203634 | 77 | 243 | 6.0 | 14.0 | 0.00 | 0.00 | 0.00 | 28 | 931.1 |
| 20260902203133 | 76 | 238 | 7.0 | 14.0 | 0.00 | 0.00 | 0.00 | 29 | 931.2 |
| 20260902202629 | 75 | 233 | 13.0 | 23.0 | 0.00 | 0.00 | 0.00 | 29 | 930.9 |
| 20260902202125 | 76 | 233 | 8.0 | 26.0 | 0.00 | 0.00 | 0.00 | 29 | 931.1 |
| 20260902201621 | 75 | 192 | 10.0 | 13.0 | 0.00 | 0.00 | 0.00 | 30 | 931.2 |
| 20260902201120 | 75 | 336 | 1.0 | 20.0 | 0.00 | 0.00 | 0.00 | 29 | 931.2 |
| 20260902200615 | 76 | 216 | 14.0 | 20.0 | 0.00 | 0.00 | 0.00 | 28 | 931.1 |
| 20260902200112 | 75 | 240 | 12.0 | 21.0 | 0.00 | 0.00 | 0.00 | 31 | 931.3 |
| 20260902195607 | 75 | 233 | 9.0 | 29.0 | 0.00 | 0.00 | 0.00 | 30 | 931.5 |
| 20260902195106 | 75 | 194 | 20.0 | 34.0 | 0.00 | 0.00 | 0.00 | 29 | 931.6 |
| 20260902194606 | 75 | 238 | 11.0 | 17.0 | 0.00 | 0.00 | 0.00 | 32 | 931.5 |
| 20260902194101 | 75 | 130 | 15.0 | 20.0 | 0.00 | 0.00 | 0.00 | 32 | 931.7 |
| 20260902193557 | 75 | 193 | 8.0 | 18.0 | 0.00 | 0.00 | 0.00 | 33 | 931.7 |
| 20260902193056 | 75 | 267 | 16.0 | 23.0 | 0.00 | 0.00 | 0.00 | 31 | 931.7 |
| 20260902192555 | 74 | 148 | 8.0 | 18.0 | 0.00 | 0.00 | 0.00 | 34 | 931.7 |
| 20260902192054 | 74 | 215 | 10.0 | 13.0 | 0.00 | 0.00 | 0.00 | 33 | 931.8 |
| 20260902191549 | 75 | 202 | 12.0 | 24.0 | 0.00 | 0.00 | 0.00 | 33 | 931.3 |
| 20260902191043 | 74 | 193 | 13.0 | 21.0 | 0.00 | 0.00 | 0.00 | 34 | 931.8 |
| 20260902190539 | 75 | 230 | 15.0 | 20.0 | 0.00 | 0.00 | 0.00 | 34 | 932.0 |
| 20260902190035 | 74 | 227 | 3.0 | 23.0 | 0.00 | 0.00 | 0.00 | 35 | 931.9 |
| 20260902185531 | 74 | 315 | 10.0 | 17.0 | 0.00 | 0.00 | 0.00 | 35 | 931.8 |
| 20260902185026 | 74 | 253 | 11.0 | 20.0 | 0.00 | 0.00 | 0.00 | 35 | 931.9 |
| 20260902184521 | 73 | 199 | 12.0 | 21.0 | 0.00 | 0.00 | 0.00 | 35 | 932.4 |
| 20260902184016 | 73 | 201 | 9.0 | 17.0 | 0.00 | 0.00 | 0.00 | 37 | 932.0 |
| 20260902183513 | 72 | 206 | 7.0 | 17.0 | 0.00 | 0.00 | 0.00 | 37 | 932.4 |
| 20260902183009 | 72 | 246 | 5.0 | 20.0 | 0.00 | 0.00 | 0.00 | 39 | 932.3 |
| 20260902182504 | 73 | 188 | 16.0 | 21.0 | 0.00 | 0.00 | 0.00 | 37 | 932.4 |
| 20260902182000 | 73 | 194 | 6.0 | 15.0 | 0.00 | 0.00 | 0.00 | 37 | 932.6 |
| 20260902181456 | 73 | 279 | 8.0 | 15.0 | 0.00 | 0.00 | 0.00 | 37 | 932.5 |
| 20260902180950 | 73 | 200 | 9.0 | 23.0 | 0.00 | 0.00 | 0.00 | 36 | 932.3 |
| 20260902180445 | 72 | 214 | 11.0 | 17.0 | 0.00 | 0.00 | 0.00 | 37 | 932.5 |
| 20260902175941 | 72 | 177 | 15.0 | 24.0 | 0.00 | 0.00 | 0.00 | 36 | 932.6 |
| 20260902175441 | 73 | 244 | 15.0 | 21.0 | 0.00 | 0.00 | 0.00 | 37 | 932.4 |
| 20260902174937 | 72 | 150 | 10.0 | 17.0 | 0.00 | 0.00 | 0.00 | 37 | 932.8 |
| 20260902174434 | 72 | 213 | 10.0 | 16.0 | 0.00 | 0.00 | 0.00 | 37 | 932.6 |
| 20260902173929 | 70 | 278 | 10.0 | 13.0 | 0.00 | 0.00 | 0.00 | 38 | 933.1 |
| 20260902173428 | 70 | 251 | 10.0 | 18.0 | 0.00 | 0.00 | 0.00 | 38 | 933.4 |
| 20260902172923 | 71 | 226 | 11.0 | 18.0 | 0.00 | 0.00 | 0.00 | 37 | 933.2 |
| 20260902172423 | 73 | 249 | 10.0 | 16.0 | 0.00 | 0.00 | 0.00 | 38 | 932.9 |
| 20260902171918 | 72 | 252 | 13.0 | 21.0 | 0.00 | 0.00 | 0.00 | 38 | 932.7 |
| 20260902171413 | 72 | 241 | 8.0 | 10.0 | 0.00 | 0.00 | 0.00 | 38 | 932.6 |
| 20260902170909 | 72 | 183 | 10.0 | 16.0 | 0.00 | 0.00 | 0.00 | 38 | 932.6 |
| 20260902170404 | 72 | 254 | 11.0 | 16.0 | 0.00 | 0.00 | 0.00 | 39 | 932.6 |
| 20260902165900 | 71 | 287 | 7.0 | 18.0 | 0.00 | 0.00 | 0.00 | 40 | 932.5 |
| 20260902165359 | 71 | 211 | 6.0 | 14.0 | 0.00 | 0.00 | 0.00 | 41 | 932.7 |
| 20260902164854 | 71 | 177 | 7.0 | 14.0 | 0.00 | 0.00 | 0.00 | 40 | 933.1 |
| 20260902164349 | 70 | 249 | 10.0 | 14.0 | 0.00 | 0.00 | 0.00 | 40 | 932.8 |
| 20260902163848 | 69 | 175 | 5.0 | 13.0 | 0.00 | 0.00 | 0.00 | 43 | 932.9 |
| 20260902163343 | 69 | 295 | 3.0 | 14.0 | 0.00 | 0.00 | 0.00 | 44 | 933.1 |
| 20260902162841 | 70 | 183 | 0.0 | 11.0 | 0.00 | 0.00 | 0.00 | 42 | 933.3 |
| 20260902162336 | 69 | 212 | 9.0 | 13.0 | 0.00 | 0.00 | 0.00 | 45 | 932.8 |
| 20260902161831 | 69 | 102 | 3.0 | 10.0 | 0.00 | 0.00 | 0.00 | 45 | 933.1 |
| 20260902161327 | 69 | 213 | 9.0 | 14.0 | 0.00 | 0.00 | 0.00 | 45 | 932.9 |
| 20260902160823 | 69 | 221 | 9.0 | 11.0 | 0.00 | 0.00 | 0.00 | 45 | 932.8 |
| 20260902160318 | 68 | 183 | 6.0 | 13.0 | 0.00 | 0.00 | 0.00 | 47 | 932.9 |
| 20260902155816 | 68 | 229 | 8.0 | 18.0 | 0.00 | 0.00 | 0.00 | 47 | 933.1 |
| 20260902155315 | 67 | 155 | 4.0 | 16.0 | 0.00 | 0.00 | 0.00 | 49 | 932.9 |
| 20260902154810 | 67 | 200 | 6.0 | 21.0 | 0.00 | 0.00 | 0.00 | 51 | 933.2 |
| 20260902154306 | 66 | 189 | 4.0 | 8.0 | 0.00 | 0.00 | 0.00 | 53 | 933.4 |
| 20260902153804 | 66 | 191 | 8.0 | 13.0 | 0.00 | 0.00 | 0.00 | 53 | 933.5 |
| 20260902153259 | 65 | 210 | 3.0 | 10.0 | 0.00 | 0.00 | 0.00 | 56 | 933.4 |
| 20260902152755 | 64 | 187 | 5.0 | 6.0 | 0.00 | 0.00 | 0.00 | 57 | 933.4 |
| 20260902152251 | 63 | 227 | 7.0 | 11.0 | 0.00 | 0.00 | 0.00 | 57 | 933.5 |
| 20260902151751 | 62 | 213 | 5.0 | 9.0 | 0.00 | 0.00 | 0.00 | 59 | 933.3 |
| 20260902151246 | 61 | 150 | 3.0 | 8.0 | 0.00 | 0.00 | 0.00 | 62 | 933.4 |
| 20260902150745 | 61 | 191 | 6.0 | 9.0 | 0.00 | 0.00 | 0.00 | 62 | 933.5 |
| 20260902150242 | 59 | 226 | 6.0 | 13.0 | 0.00 | 0.00 | 0.00 | 67 | 933.5 |
| 20260902145741 | 59 | 63 | 1.0 | 2.0 | 0.00 | 0.00 | 0.00 | 69 | 933.4 |
| 20260902145237 | 59 | 40 | 0.0 | 1.0 | 0.00 | 0.00 | 0.00 | 71 | 933.5 |
| 20260902144732 | 58 | 60 | 1.0 | 3.0 | 0.00 | 0.00 | 0.00 | 71 | 933.6 |
| 20260902144228 | 57 | 67 | 0.0 | 0.0 | 0.00 | 0.00 | 0.00 | 72 | 933.6 |
| 20260902143723 | 57 | 133 | 0.0 | 0.0 | 0.00 | 0.00 | 0.00 | 72 | 933.4 |
| 20260902143218 | 57 | 42 | 0.0 | 0.0 | 0.00 | 0.00 | 0.00 | 71 | 933.6 |
| 20260902142714 | 57 | 50 | 0.0 | 1.0 | 0.00 | 0.00 | 0.00 | 71 | 933.7 |
| 20260902142209 | 57 | 50 | 0.0 | 3.0 | 0.00 | 0.00 | 0.00 | 71 | 933.7 |
| 20260902141709 | 58 | 90 | 3.0 | 3.0 | 0.00 | 0.00 | 0.00 | 70 | 933.9 |
| 20260902141205 | 57 | 37 | 0.0 | 0.0 | 0.00 | 0.00 | 0.00 | 71 | 934.2 |
| 20260902140701 | 55 | 73 | 1.0 | 3.0 | 0.00 | 0.00 | 0.00 | 75 | 934.1 |
| 20260902140200 | 54 | 51 | 0.0 | 0.0 | 0.00 | 0.00 | 0.00 | 77 | 934.2 |
| 20260902135700 | 54 | 54 | 0.0 | 0.0 | 0.00 | 0.00 | 0.00 | 78 | 934.1 |
| 20260902135155 | 53 | 44 | 0.0 | 0.0 | 0.00 | 0.00 | 0.00 | 78 | 934.0 |
| 20260902134650 | 53 | 73 | 2.0 | 3.0 | 0.00 | 0.00 | 0.00 | 79 | 933.7 |
| 20260902134150 | 53 | 81 | 0.0 | 0.0 | 0.00 | 0.00 | 0.00 | 78 | 932.9 |
| 20260902133645 | 53 | 63 | 0.0 | 0.0 | 0.00 | 0.00 | 0.00 | 78 | 933.1 |
| 20260902133140 | 52 | 64 | 1.0 | 2.0 | 0.00 | 0.00 | 0.00 | 80 | 933.2 |
| 20260902132635 | 51 | 8 | 1.0 | 2.0 | 0.00 | 0.00 | 0.00 | 82 | 932.6 |
| 20260902132131 | 51 | 40 | 0.0 | 0.0 | 0.00 | 0.00 | 0.00 | 82 | 932.4 |
| 20260902131626 | 50 | 85 | 2.0 | 2.0 | 0.00 | 0.00 | 0.00 | 82 | 932.4 |
| 20260902131121 | 50 | 70 | 0.0 | 2.0 | 0.00 | 0.00 | 0.00 | 82 | 932.4 |
| 20260902130617 | 50 | 44 | 0.0 | 2.0 | 0.00 | 0.00 | 0.00 | 81 | 932.1 |
| 20260902130117 | 51 | 33 | 0.0 | 0.0 | 0.00 | 0.00 | 0.00 | 81 | 931.9 |
| 20260902125613 | 51 | 62 | 1.0 | 2.0 | 0.00 | 0.00 | 0.00 | 80 | 932.0 |
| 20260902125108 | 51 | 92 | 3.0 | 6.0 | 0.00 | 0.00 | 0.00 | 80 | 931.8 |
| 20260902124606 | 51 | 87 | 4.0 | 5.0 | 0.00 | 0.00 | 0.00 | 80 | 932.0 |
| 20260902124105 | 51 | 56 | 1.0 | 2.0 | 0.00 | 0.00 | 0.00 | 80 | 931.9 |
| 20260902123601 | 51 | 89 | 4.0 | 6.0 | 0.00 | 0.00 | 0.00 | 80 | 932.1 |
| 20260902123055 | 50 | 113 | 1.0 | 3.0 | 0.00 | 0.00 | 0.00 | 81 | 932.0 |
| 20260902122549 | 50 | 52 | 2.0 | 3.0 | 0.00 | 0.00 | 0.00 | 81 | 932.1 |
| 20260902122045 | 51 | 58 | 2.0 | 5.0 | 0.00 | 0.00 | 0.00 | 80 | 932.0 |
| 20260902121540 | 51 | 120 | 4.0 | 6.0 | 0.00 | 0.00 | 0.00 | 80 | 932.1 |
| 20260902121035 | 50 | 58 | 1.0 | 3.0 | 0.00 | 0.00 | 0.00 | 82 | 932.1 |
| 20260902120531 | 50 | 87 | 1.0 | 3.0 | 0.00 | 0.00 | 0.00 | 82 | 932.3 |
| 20260902120027 | 50 | 136 | 2.0 | 3.0 | 0.00 | 0.00 | 0.00 | 82 | 932.4 |
| 20260902115522 | 50 | 109 | 0.0 | 3.0 | 0.00 | 0.00 | 0.00 | 81 | 932.1 |
| 20260902115018 | 50 | 71 | 3.0 | 5.0 | 0.00 | 0.00 | 0.00 | 81 | 932.3 |
| 20260902114513 | 51 | 125 | 3.0 | 3.0 | 0.00 | 0.00 | 0.00 | 81 | 932.4 |
| 20260902114013 | 51 | 47 | 1.0 | 2.0 | 0.00 | 0.00 | 0.00 | 81 | 932.5 |
| 20260902113509 | 51 | 56 | 1.0 | 3.0 | 0.00 | 0.00 | 0.00 | 81 | 932.5 |
| 20260902113004 | 51 | 42 | 0.0 | 0.0 | 0.00 | 0.00 | 0.00 | 81 | 932.3 |
| 20260902112459 | 51 | 65 | 1.0 | 1.0 | 0.00 | 0.00 | 0.00 | 81 | 932.4 |
| 20260902111955 | 51 | 76 | 2.0 | 5.0 | 0.00 | 0.00 | 0.00 | 82 | 932.3 |
| 20260902111452 | 51 | 61 | 0.0 | 2.0 | 0.00 | 0.00 | 0.00 | 82 | 932.5 |
| 20260902110947 | 51 | 60 | 0.0 | 0.0 | 0.00 | 0.00 | 0.00 | 82 | 932.5 |
| 20260902110443 | 51 | 70 | 2.0 | 2.0 | 0.00 | 0.00 | 0.00 | 83 | 932.3 |
| 20260902105937 | 50 | 61 | 0.0 | 1.0 | 0.00 | 0.00 | 0.00 | 82 | 932.3 |
| 20260902105432 | 51 | 52 | 0.0 | 0.0 | 0.00 | 0.00 | 0.00 | 81 | 932.5 |
| 20260902104927 | 51 | 60 | 1.0 | 3.0 | 0.00 | 0.00 | 0.00 | 80 | 932.1 |
| 20260902104423 | 51 | 91 | 4.0 | 5.0 | 0.00 | 0.00 | 0.00 | 81 | 932.3 |
| 20260902103922 | 51 | 90 | 3.0 | 3.0 | 0.00 | 0.00 | 0.00 | 81 | 932.1 |
| 20260902103418 | 51 | 90 | 3.0 | 3.0 | 0.00 | 0.00 | 0.00 | 82 | 932.3 |
| 20260902102913 | 51 | 90 | 2.0 | 3.0 | 0.00 | 0.00 | 0.00 | 82 | 932.3 |
| 20260902102410 | 51 | 76 | 0.0 | 0.0 | 0.00 | 0.00 | 0.00 | 82 | 932.0 |
| 20260902101906 | 51 | 75 | 0.0 | 0.0 | 0.00 | 0.00 | 0.00 | 82 | 932.3 |
| 20260902101400 | 51 | 55 | 0.0 | 0.0 | 0.00 | 0.00 | 0.00 | 83 | 932.0 |
| 20260902100900 | 51 | 48 | 0.0 | 0.0 | 0.00 | 0.00 | 0.00 | 83 | 931.9 |
| 20260902100359 | 51 | 48 | 0.0 | 0.0 | 0.00 | 0.00 | 0.00 | 83 | 932.3 |
| 20260902095855 | 51 | 45 | 0.0 | 0.0 | 0.00 | 0.00 | 0.00 | 82 | 932.0 |
| 20260902095355 | 51 | 46 | 0.0 | 0.0 | 0.00 | 0.00 | 0.00 | 81 | 932.3 |
| 20260902094854 | 52 | 46 | 0.0 | 0.0 | 0.00 | 0.00 | 0.00 | 80 | 932.3 |
| 20260902094351 | 53 | 47 | 0.0 | 0.0 | 0.00 | 0.00 | 0.00 | 79 | 932.5 |
| 20260902093850 | 53 | 67 | 1.0 | 2.0 | 0.00 | 0.00 | 0.00 | 78 | 932.5 |
| 20260902093345 | 54 | 44 | 0.0 | 2.0 | 0.00 | 0.00 | 0.00 | 77 | 932.6 |
| 20260902092844 | 54 | 59 | 1.0 | 3.0 | 0.00 | 0.00 | 0.00 | 77 | 932.4 |
| 20260902092335 | 54 | 72 | 3.0 | 3.0 | 0.00 | 0.00 | 0.00 | 78 | 932.6 |
| 20260902091834 | 54 | 52 | 0.0 | 2.0 | 0.00 | 0.00 | 0.00 | 79 | 932.3 |
| 20260902091330 | 53 | 34 | 0.0 | 0.0 | 0.00 | 0.00 | 0.00 | 79 | 932.5 |
| 20260902090827 | 53 | 42 | 0.0 | 0.0 | 0.00 | 0.00 | 0.00 | 80 | 932.4 |
| 20260902090326 | 53 | 40 | 0.0 | 0.0 | 0.00 | 0.00 | 0.00 | 80 | 932.4 |
| 20260902085825 | 53 | 40 | 0.0 | 0.0 | 0.00 | 0.00 | 0.00 | 80 | 932.3 |
| 20260902085320 | 53 | 39 | 0.0 | 0.0 | 0.00 | 0.00 | 0.00 | 79 | 932.4 |
| 20260902084816 | 53 | 44 | 0.0 | 0.0 | 0.00 | 0.00 | 0.00 | 79 | 932.5 |
| 20260902084313 | 53 | 43 | 0.0 | 0.0 | 0.00 | 0.00 | 0.00 | 79 | 932.5 |
| 20260902083807 | 54 | 61 | 0.0 | 0.0 | 0.00 | 0.00 | 0.00 | 78 | 932.4 |
| 20260902083307 | 54 | 79 | 2.0 | 2.0 | 0.00 | 0.00 | 0.00 | 78 | 932.1 |
| 20260902082802 | 54 | 70 | 0.0 | 1.0 | 0.00 | 0.00 | 0.00 | 78 | 932.7 |
| 20260902082259 | 54 | 25 | 0.0 | 0.0 | 0.00 | 0.00 | 0.00 | 77 | 932.5 |
| 20260902081755 | 55 | 17 | 0.0 | 0.0 | 0.00 | 0.00 | 0.00 | 76 | 932.4 |
| 20260902081250 | 55 | 73 | 0.0 | 0.0 | 0.00 | 0.00 | 0.00 | 76 | 932.5 |
| 20260902080745 | 55 | 75 | 0.0 | 0.0 | 0.00 | 0.00 | 0.00 | 76 | 932.4 |
| 20260902080242 | 55 | 52 | 0.0 | 2.0 | 0.00 | 0.00 | 0.00 | 76 | 932.3 |
| 20260902075741 | 55 | 83 | 0.0 | 5.0 | 0.00 | 0.00 | 0.00 | 78 | 932.3 |
| 20260902075238 | 54 | 69 | 0.0 | 0.0 | 0.00 | 0.00 | 0.00 | 79 | 932.0 |
| 20260902074737 | 55 | 54 | 0.0 | 2.0 | 0.00 | 0.00 | 0.00 | 78 | 932.3 |
| 20260902074233 | 55 | 87 | 0.0 | 1.0 | 0.00 | 0.00 | 0.00 | 78 | 932.4 |
| 20260902073728 | 56 | 95 | 5.0 | 6.0 | 0.00 | 0.00 | 0.00 | 77 | 932.3 |
| 20260902073224 | 56 | 92 | 3.0 | 6.0 | 0.00 | 0.00 | 0.00 | 77 | 932.0 |
| 20260902072720 | 56 | 85 | 0.0 | 0.0 | 0.00 | 0.00 | 0.00 | 76 | 932.3 |
| 20260902072216 | 56 | 66 | 0.0 | 0.0 | 0.00 | 0.00 | 0.00 | 76 | 932.6 |
| 20260902071712 | 56 | 79 | 0.0 | 0.0 | 0.00 | 0.00 | 0.00 | 75 | 932.5 |
| 20260902071207 | 56 | 84 | 0.0 | 0.0 | 0.00 | 0.00 | 0.00 | 76 | 932.5 |
| 20260902070703 | 56 | 71 | 0.0 | 2.0 | 0.00 | 0.00 | 0.00 | 77 | 932.1 |
| 20260902070202 | 56 | 119 | 0.0 | 1.0 | 0.00 | 0.00 | 0.00 | 77 | 932.4 |
| 20260902065701 | 56 | 113 | 1.0 | 3.0 | 0.00 | 0.00 | 0.00 | 77 | 932.1 |
| 20260902065157 | 56 | 120 | 2.0 | 3.0 | 0.00 | 0.00 | 0.00 | 76 | 932.3 |
| 20260902064652 | 56 | 119 | 0.0 | 0.0 | 0.00 | 0.00 | 0.00 | 76 | 932.1 |
| 20260902064148 | 57 | 60 | 0.0 | 0.0 | 0.00 | 0.00 | 0.00 | 75 | 931.9 |
| 20260902063643 | 57 | 127 | 2.0 | 3.0 | 0.00 | 0.00 | 0.00 | 75 | 932.1 |
| 20260902063138 | 56 | 63 | 0.0 | 0.0 | 0.00 | 0.00 | 0.00 | 76 | 932.1 |
| 20260902062637 | 56 | 46 | 0.0 | 0.0 | 0.00 | 0.00 | 0.00 | 76 | 931.9 |
| 20260902062132 | 56 | 49 | 0.0 | 0.0 | 0.00 | 0.00 | 0.00 | 76 | 931.9 |
| 20260902061631 | 56 | 52 | 0.0 | 2.0 | 0.00 | 0.00 | 0.00 | 76 | 932.0 |
| 20260902061127 | 56 | 37 | 0.0 | 0.0 | 0.00 | 0.00 | 0.00 | 77 | 932.1 |
| 20260902060624 | 56 | 44 | 0.0 | 0.0 | 0.00 | 0.00 | 0.00 | 77 | 932.0 |
| 20260902060120 | 56 | 89 | 1.0 | 2.0 | 0.00 | 0.00 | 0.00 | 77 | 932.1 |
| 20260902055615 | 56 | 63 | 0.0 | 1.0 | 0.00 | 0.00 | 0.00 | 76 | 932.1 |
| 20260902055111 | 57 | 30 | 0.0 | 0.0 | 0.00 | 0.00 | 0.00 | 76 | 932.0 |
| 20260902054605 | 57 | 27 | 0.0 | 0.0 | 0.00 | 0.00 | 0.00 | 75 | 931.9 |
| 20260902054102 | 57 | 43 | 0.0 | 0.0 | 0.00 | 0.00 | 0.00 | 75 | 932.1 |
| 20260902053557 | 57 | 8 | 0.0 | 3.0 | 0.00 | 0.00 | 0.00 | 74 | 932.3 |
| 20260902053051 | 58 | 39 | 0.0 | 0.0 | 0.00 | 0.00 | 0.00 | 73 | 932.4 |
| 20260902052551 | 58 | 42 | 0.0 | 0.0 | 0.00 | 0.00 | 0.00 | 72 | 932.3 |
| 20260902052047 | 59 | 45 | 0.0 | 1.0 | 0.00 | 0.00 | 0.00 | 71 | 932.4 |
| 20260902051546 | 59 | 11 | 2.0 | 2.0 | 0.00 | 0.00 | 0.00 | 71 | 932.3 |
| 20260902051045 | 59 | 83 | 1.0 | 1.0 | 0.00 | 0.00 | 0.00 | 71 | 932.3 |
| 20260902050540 | 59 | 114 | 0.0 | 2.0 | 0.00 | 0.00 | 0.00 | 70 | 932.4 |